OICK

Details ICAO OICK (KHD)
Name KHORAM ABAD
Region Iran
Timezone Asia/Tehran (UTC+4.5)
Plans Departing 3
Arriving 3
Stats Elevation 3,782 ft / 1,153 m (AMSL)
Location 33.435376° 48.282888°
Runways 1
Magnetic Variation 4.410° E
Sunrise 2018-05-22 01:43:52 UTC / 2018-05-22 06:13:52 Local
Sunset 2018-05-22 15:46:02 UTC / 2018-05-22 20:16:02 Local
Advertisement - Login to hide

Runways

ID Width Length Bearing (true) Bearing (mag) Surface Threshold Offset Overrun Length
11 148 ft / 45 m 10,489 ft / 3,197 m 113.06° 108.65° Asphalt 0 ft / 0 m 331 ft / 101 m
29 148 ft / 45 m 10,489 ft / 3,197 m 293.08° 288.67° Asphalt 700 ft / 213 m 1,015 ft / 309 m

Map

Weather


0- 5 10 15 20 25 30 35+ Temperature / ° C

Clouds and Precipitation
Forecast for 2018-05-22 12:00 UTC. Updated 4 hours ago

Ground ~20,000 ft ~40,000 ft Winds

METAR

OICK 221350Z 14006KT 9999 FEW035CB SCT040 26/11 Q1018

TAF

Not found

Frequencies

Tower 121.90 MHz INFO
Tower 118.35 MHz INFO
Warning: Do not use this data for real-world aviation or navigation. No guarantee of current accuracy is given.